View from above orbital plane
|
View from above satellite
|
Ground track
|
The orbit data is extracted from the following two-line orbital elements,
1 40071U 14037C 21024.45400993 .00000103 00000-0 20657-4 0 9998
2 40071 98.4579 221.1446 0009203 142.9570 217.2284 14.81444201353970
Epoch (UTC): | 24 January 2021 10:53:46 |
Eccentricity: | 0.0009203 |
inclination: | 98.4579° |
perigee height: | 618 km |
apogee height: | 631 km |
right ascension of ascending node: | 221.1446° |
argument of perigee: | 142.9570° |
revolutions per day: | 14.81444201 |
mean anomaly at epoch: | 217.2284° |
orbit number at epoch: | 35397 |
The dashed part of the orbit path shows where the satellite is in the earth's shadow,
|
|